This is the latest recevied weather packets stored in our database for station/object XE2G-31. If no packets are shown the sender has not sent any weather packets the latest 10 day(s).
| Time | Temp. | Humidity | Pressure | Rain* | Wind** | Luminosity | Snow |
|---|---|---|---|---|---|---|---|
| 1777521044 | 26.11° C | 59% | 870 hPa | - | - | - | - |
| 1777520097 | 26.11° C | 57% | 870 hPa | - | - | - | - |
| 1777519150 | 26.67° C | 55% | 869 hPa | - | - | - | - |
| 1777518203 | 26.67° C | 54% | 869 hPa | - | - | - | - |
| 1777517256 | 27.22° C | 53% | 869 hPa | - | - | - | - |
| 1777516309 | 27.78° C | 50% | 869 hPa | - | - | - | - |
| 1777515363 | 28.33° C | 49% | 869 hPa | - | - | - | - |
| 1777514416 | 28.33° C | 43% | 869 hPa | - | - | - | - |
| 1777513469 | 28.33° C | 41% | 869 hPa | - | - | - | - |
| 1777512522 | 29.44° C | 41% | 869 hPa | - | - | - | - |
| 1777511575 | 30° C | 39% | 869 hPa | - | - | - | - |
| 1777510628 | 30° C | 37% | 869 hPa | - | - | - | - |
| 1777509682 | 27.22° C | 50% | 869 hPa | - | - | - | - |
| 1777508735 | 28.33° C | 45% | 869 hPa | - | - | - | - |
| 1777507788 | 28.89° C | 52% | 869 hPa | - | - | - | - |
| 1777506841 | 28.89° C | 35% | 868 hPa | - | - | - | - |
| 1777505894 | 29.44° C | 51% | 869 hPa | - | - | - | - |
| 1777504947 | 30° C | 50% | 869 hPa | - | - | - | - |
| 1777504001 | 31.11° C | 50% | 868 hPa | - | - | - | - |
| 1777503054 | 31.11° C | 50% | 868 hPa | - | - | - | - |
| 1777502107 | 30.56° C | 50% | 868 hPa | - | - | - | - |
| 1777501972 | 31.11° C | 50% | 868 hPa | - | - | - | - |
| 1777501025 | 31.11° C | 50% | 868 hPa | - | - | - | - |
| 1777500079 | 31.67° C | 50% | 868 hPa | - | - | - | - |
| 1777499132 | 32.22° C | 49% | 869 hPa | - | - | - | - |
* Rain since midnight (hover to see other rain measurements)
** Current wind speed in m/s (hover to see current wind gust speed)